Regional Weather Roundup
Issued by NWS Little Rock, AR

Home | Current Version | Previous Version | Text Only | Print | Product List | Glossary Off
Versions: 1 2 3 4 5 6 7 8 9 10 11 12 13 14 15 16 17 18 19 20 21 22 23 24 25 26 27 28 29 30 31 32 33 34 35 36 37 38 39 40 41 42 43 44 45 46 47 48 49 50

000
ASUS44 KLZK 300705
RWRLZK

WEATHER ROUNDUP FOR ARKANSAS
NATIONAL WEATHER SERVICE LITTLE ROCK AR
200 AM CDT MON MAR 30 2015

NOTE: "FAIR" INDICATES FEW OR NO CLOUDS BELOW 12,000 FEET WITH NO
SIGNIFICANT WEATHER AND/OR OBSTRUCTIONS TO VISIBILITY.

ARZ001-003-010-029-300800-
NORTHWEST ARKANSAS

CITY           SKY/WX    TMP DP  RH WIND       PRES   REMARKS
FAYETTEVILLE   CLEAR     41  41 100 CALM      30.17S
FORT SMITH     CLEAR     53  45  74 SW5       30.15S
HARRISON       CLEAR     49  41  74 NW5       30.16R
BENTONVILLE    CLEAR     46  41  81 N3        30.18S
ROGERS         CLEAR     48  43  82 N3        30.18S
SILOAM SPGS    CLEAR     46  37  71 N5        30.19R
HIGHFILL       CLEAR     45  41  86 N3        30.17R
$$

ARZ004-005-016-300800-
NORTH CENTRAL ARKANSAS

CITY           SKY/WX    TMP DP  RH WIND       PRES   REMARKS
BATESVILLE     CLEAR     55  45  67 NW5       30.12R
FLIPPIN        CLEAR     52  39  62 NW5       30.15R
MTN HOME       CLEAR     48  43  82 NW3       30.14R
$$

ARZ040-041-300800-
WEST CENTRAL ARKANSAS

CITY           SKY/WX    TMP DP  RH WIND       PRES   REMARKS
MENA           PTCLDY    61  45  55 E3        30.15S
MOUNT IDA      CLEAR     56  47  71 CALM      30.11S
$$

ARZ009-017-025-026-028-300800-
NORTHEAST ARKANSAS

CITY           SKY/WX    TMP DP  RH WIND       PRES   REMARKS
CORNING          N/A     50  46  87 NW8       30.11S
JONESBORO      CLEAR     55  48  77 N6        30.09R
NEWPORT        CLEAR     52  49  89 NW9       30.11R
BLYTHEVILLE    PTCLDY    48  47  96 NW9       30.08S
$$

ARZ022-023-033-042-044-300800-
CENTRAL ARKANSAS

CITY           SKY/WX    TMP DP  RH WIND       PRES   REMARKS
LITTLE ROCK    MOCLDY    63  46  54 NW6       30.11R
N LITTLE ROCK    N/A     60  50  69 NW6       30.11R
JACKSONVILLE   PTCLDY    60  47  63 NW3       30.11R
SEARCY         CLEAR     58  48  69 N6        30.12R
HOT SPRINGS    CLOUDY    61  50  67 CALM      30.13R
RUSSELLVILLE   CLEAR     49  48  97 CALM      30.13R
CLINTON        FAIR      45  45 100 CALM      30.14S
$$

ARZ036-300800-
EAST ARKANSAS

CITY           SKY/WX    TMP DP  RH WIND       PRES   REMARKS
WEST MEMPHIS   MOCLDY    56  55  97 N3        30.06R
$$

ARZ050-053-066-070-073-300800-
SOUTHWEST ARKANSAS

CITY           SKY/WX    TMP DP  RH WIND       PRES   REMARKS
ARKADELPHIA    PTSUNNY   62  60  93 CALM      30.13R
CAMDEN         CLOUDY    68  55  64 MISG      30.12R
TEXARKANA      CLOUDY    68  58  70 S7        30.12R
EL DORADO      PTCLDY    67  58  72 SW15      30.11R
DE QUEEN       CLOUDY    58  52  80 CALM      30.10R
$$

ARZ056-057-069-300800-
SOUTHEAST ARKANSAS

CITY           SKY/WX    TMP DP  RH WIND       PRES   REMARKS
PINE BLUFF     CLOUDY    64  53  67 NW9       30.11R
STUTTGART      CLOUDY    59  52  77 NW6       30.10R
MONTICELLO     CLOUDY    67  57  70 W6        30.10R

$$




USA.gov is the U.S. government's official web portal to all federal, state and local government web resources and services.